Other Public Products
Issued by NWS Charleston, SC

Current Version | Previous Version | Text Only | Print | Product List | Glossary Off
Versions: 1 2 3 4 5 6 7 8 9 10 11 12 13 14 15 16 17 18 19 20 21 22 23 24 25 26 27 28 29 30 31 32 33 34 35 36 37 38 39 40 41 42 43 44 45 46 47 48 49 50

770
FPUS82 KCHS 170112
OPUCHS

TEST...KCHS/KSAV Gateway Observations...TEST
National Weather Service Charleston SC
800 PM EST FRI FEB 16 2018

NOTE: "fair" indicates few or no clouds below 12,000 feet with no
significant weather and/or obstructions to visibility.

SCZ050-WAZ558-NCZ071-TXZ119-213-PAZ071-DCZ001-FLZ074-172-MI076-
NYZ176-178-MAZ016-IL014-TNZ027-NJZ106-GAZ044-MD014-170200-

...Gateway Observations for Charleston International...

CITY           SKY/WX    TMP DP  RH WIND       PRES   REMARKS
Chas Airport   FAIR      66  59  78 S9        30.04R
Seattle        DRIZZLE   46  44  93 S12       30.15S
Charlotte      LGT RAIN  67  52  58 N5        30.05R
Dallas DFW     CLOUDY    48  31  51 N13       30.20F
Dallas Love    CLOUDY    50  32  50 N10G17    30.22S
Philladelphia  MOCLDY    46  32  58 N21G30    30.01R
Wash National  CLOUDY    48  32  53 NW20G31   30.10R
Baltimore      CLOUDY    45  32  60 NW18G26   30.07R
Miami          FAIR      75  66  73 S8        30.19R
Detroit        FAIR      26  16  65 S5        30.26R WCI  20
Newark         MOCLDY    43  28  55 NW20G31   29.98R
Laguardia      MOCLDY    42  28  57 NW20G26   29.97R
J F K          MOCLDY    43  29  57 NW26G36   29.97R
Boston Logan   FAIR      42  29  59 NW17G31   29.84R
Ft. Lauderdale FAIR      74  66  76 SE6       30.17R
Chicago O`Hare FAIR      27  11  51 W10       30.29R WCI  17
Chicago Midway FAIR      28  13  53 W9        30.29R WCI  19
Houston Bush   MOCLDY    71  65  81 N10       30.07R
Houston Hobby  FAIR      74  68  81 S12       30.05S
Nashville      CLOUDY    44  36  73 N12       30.28R
Atlanta        LGT RAIN  58  57  97 NW20      30.12R

$$

GAZ044-118-TXZ119-213-NCZ071-DCZ001-MDZ014-506-PAZ021-071-NJZ106-
NYZ176-178-MAZ106-OHZ011-021-055-MIZ076-KYZ091-ILZ014-INZ047-
MNZ060-ONZ431-170200-

...Gateway Observations for Savannah International...

CITY           SKY/WX    TMP DP  RH WIND       PRES   REMARKS
Savannah Arpt  FAIR      72  60  66 SW8       30.08R
Atlanta        LGT RAIN  58  57  97 NW20      30.12R
Charlotte      LGT RAIN  67  52  58 N5        30.05R
Dallas DFW     CLOUDY    48  31  51 N13       30.20F
Houston Bush   MOCLDY    71  65  81 N10       30.07R
Wash National  CLOUDY    48  32  53 NW20G31   30.10R
Wash Dulles    MOCLDY    44  33  65 NW18      30.12R
Baltimore      CLOUDY    45  32  60 NW18G26   30.07R
Philadelphia   MOCLDY    46  32  58 N21G30    30.01R
Newark         MOCLDY    43  28  55 NW20G31   29.98R
Laguardia      MOCLDY    42  28  57 NW20G26   29.97R
J F K          MOCLDY    43  29  57 NW26G36   29.97R
Boston         FAIR      42  29  59 NW17G31   29.84R
Pittsburg      CLOUDY    31  21  66 N13       30.22R WCI  21
Akron          CLOUDY    31  19  61 W3        30.24R
Cleveland      CLOUDY    30  23  75 NE8       30.29R WCI  22
Cincinnati     CLOUDY    37  29  72 N6        30.26S WCI  32
Columbus       CLOUDY    35  25  67 N7        30.27R WCI  29
Detroit        FAIR      26  16  65 S5        30.26R WCI  20
Chicago O`Hare FAIR      27  11  51 W10       30.29R WCI  17
Minneapolis    MOCLDY    15   2  56 S9        30.14F WCI   3
Indianapolis   CLOUDY    34  22  61 VRB5      30.29S WCI  30
Toronto Canada CLEAR     23  10  58 NW13      30.20R WCI  11

$$




USA.gov is the U.S. government's official web portal to all federal, state and local government web resources and services.